Temperature
22 21 21 21 21 21 21 22 22 22 23 23 23 23 22 21 20 20 20 19 19 18 18 18 18 18 18 18 17 17 17 16 16 16 16 16 16 15 15 15 15 15 15 15
21 21 21 21 21 21 21 22 22 22 23 24 23 22 21 21 20 20 20 19 19 19 18 18 18 18 18 18 17 17 17 16 16 16 16 16 16 15 15 15 15 15 15 15
21 21 21 21 22 21 21 22 22 22 23 23 23 22 21 21 20 20 19 19 19 19 18 18 18 18 18 18 17 17 17 17 16 16 16 16 16 16 16 15 15 15 15 15
20 20 20 22 22 22 22 22 23 23 23 22 22 21 20 20 20 19 19 19 18 18 18 18 18 18 18 18 17 17 17 17 17 16 16 16 16 16 16 15 15 15 15 15
20 20 20 21 21 21 21 22 23 22 22 22 21 21 21 20 19 19 19 19 18 18 18 18 18 18 18 17 17 17 17 17 17 16 16 16 16 16 16 15 15 15 15 15
19 19 19 21 21 20 21 21 22 22 22 21 21 23 22 20 19 19 18 18 18 19 18 18 18 18 17 17 17 17 17 17 16 16 16 16 16 16 15 15 15 15 15 15
19 19 20 21 20 20 20 22 21 21 21 21 21 22 21 19 19 19 18 19 19 19 18 18 18 18 17 17 17 17 17 17 16 16 16 16 16 15 15 15 15 15 14 14
19 19 20 20 20 20 21 21 20 20 20 20 20 19 19 19 19 19 18 19 19 18 18 18 18 18 18 17 17 17 17 17 16 16 16 16 16 15 15 15 15 14 14 14
20 20 20 19 19 19 19 19 19 19 19 19 18 18 18 18 18 18 18 18 18 18 18 18 18 18 17 17 17 17 17 16 16 16 16 16 15 15 15 15 14 14 14 13
19 20 19 18 18 18 18 18 18 18 18 18 18 18 17 18 18 18 18 18 18 18 18 17 17 17 17 17 17 16 16 16 16 16 15 15 15 15 14 14 14 13 13 13
19 19 18 18 17 17 17 17 18 18 18 17 17 17 17 17 18 18 18 18 18 17 17 17 17 17 17 17 16 16 16 15 15 15 15 15 15 14 14 14 14 13 13 13
19 19 19 18 17 17 17 17 17 17 17 17 17 17 17 17 17 17 17 17 17 17 17 17 16 17 16 16 16 16 15 15 15 15 15 14 14 14 14 13 13 13 13 12
17 16 16 16 16 16 16 16 16 16 17 17 17 17 17 17 17 17 17 17 17 16 16 16 16 16 16 16 16 15 15 15 15 15 14 14 14 13 13 13 12 12 12 12
15 15 15 15 15 16 16 16 16 16 16 16 16 16 17 17 17 16 16 16 16 16 16 16 16 16 15 15 15 15 15 15 15 14 14 14 13 13 13 12 12 12 12 11
14 15 15 15 15 15 15 15 15 15 15 15 16 16 16 16 16 16 16 16 15 15 15 15 15 15 15 15 15 15 14 14 14 14 14 13 13 13 12 12 12 11 11 11
14 14 14 14 14 14 14 15 15 15 15 15 15 15 16 16 16 16 15 15 15 15 15 15 15 15 14 14 14 14 14 14 13 13 13 13 12 12 12 11 11 11 10 10
13 13 13 13 14 14 14 14 14 14 14 14 15 15 15 15 15 15 15 15 15 15 14 14 14 14 14 14 14 13 13 13 13 13 12 12 12 12 11 11 11 10 10 10
13 13 13 13 13 13 13 13 13 14 14 14 14 14 14 14 14 14 14 14 14 14 14 13 13 13 13 13 13 13 13 13 13 12 12 12 11 11 11 10 10 10 9 9
12 12 12 12 12 12 12 12 13 13 13 13 13 13 13 13 13 13 13 13 13 13 13 13 13 13 13 13 13 13 12 12 12 12 12 11 11 10 10 10 9 9 9 9
12 12 12 12 12 12 12 12 12 12 12 12 12 13 12 13 13 13 13 13 13 13 13 12 12 12 12 12 12 12 12 12 11 11 11 11 10 10 10 9 9 9 8 8
11 11 11 11 11 11 12 12 12 12 12 12 12 12 12 12 12 12 12 12 12 12 12 12 12 12 12 12 12 11 11 11 11 10 10 10 10 9 9 9 8 8 8 7
10 11 11 11 11 11 11 11 11 11 11 11 11 11 11 11 11 11 11 12 12 12 11 11 11 11 11 11 11 11 10 10 10 10 9 9 9 9 8 8 8 7 7 7
10 10 10 10 10 10 10 10 10 10 10 10 11 11 11 11 11 11 11 11 11 11 11 11 11 11 10 10 10 10 10 10 9 9 9 8 8 8 8 7 7 7 7 6
9 9 9 9 9 9 9 9 9 9 10 10 10 10 10 10 10 10 10 10 10 10 10 10 10 10 10 9 9 9 9 9 9 8 8 8 7 7 7 7 7 6 6 5
9 9 9 9 9 9 9 9 9 9 9 9 9 9 9 10 10 10 10 10 9 9 9 9 9 9 9 8 8 8 8 8 8 8 7 7 7 7 6 6 6 5 5 5
8 8 8 8 8 8 8 8 8 8 8 8 8 8 9 9 9 9 9 9 9 9 8 8 8 8 8 8 8 7 7 7 7 7 6 6 6 6 5 5 5 4 4 4
8 8 8 8 8 8 8 8 8 8 8 8 8 8 8 8 8 8 8 8 8 8 8 8 7 7 7 7 7 7 7 6 6 6 5 5 5 5 4 4 4 4 4 3
Wind_Speed
5 4 5 6 7 9 11 10 8 7 8 6 4 4 4 5 5 6 7 8 8 8 8 9 9 9 9 9 9 9 9 9 8 8 7 7 6 6 5 5 5 4 4 4
7 6 7 9 9 10 11 11 11 11 10 6 3 3 4 5 6 7 7 8 8 9 8 9 10 9 9 10 10 10 10 9 8 8 7 7 6 6 5 5 5 4 4 4
7 5 7 9 9 10 10 9 10 10 7 4 4 4 5 6 7 7 7 7 8 8 8 8 9 9 9 9 10 10 10 9 9 8 8 8 7 7 6 6 5 5 5 4
5 5 9 3 1 6 10 11 10 9 6 6 6 4 5 5 6 6 7 7 7 7 7 7 7 8 8 9 10 10 10 9 9 9 8 8 7 7 7 6 6 5 5 5
5 7 7 5 4 5 8 9 8 9 7 5 3 4 5 5 6 6 6 6 6 6 6 7 7 8 9 9 9 9 10 10 10 9 9 8 8 8 7 6 6 5 5 5
7 8 6 2 1 2 6 7 4 6 6 5 6 6 4 4 4 4 4 4 4 5 5 6 7 8 9 9 9 9 9 9 9 9 9 8 8 7 6 6 5 5 4 4
11 9 7 2 1 3 6 2 1 4 5 7 7 4 1 4 4 3 3 4 4 5 5 6 7 8 9 8 8 7 7 7 8 8 8 8 7 6 6 6 5 5 4 3
9 9 7 2 4 5 4 4 3 3 4 4 4 3 2 3 3 3 4 4 5 4 4 5 7 8 9 8 7 6 6 7 7 7 6 6 7 6 6 6 6 5 4 3
7 6 1 3 4 4 4 5 4 4 3 3 4 4 3 3 3 4 4 5 5 5 5 5 6 7 8 7 7 7 7 7 6 7 6 6 7 7 6 6 5 4 4 3
6 6 5 4 5 5 5 5 5 4 3 3 4 4 4 3 3 4 5 5 5 5 5 5 6 6 6 6 7 7 7 7 7 7 6 6 4 4 5 5 5 5 4 3
9 7 4 4 4 5 5 5 4 3 3 3 3 4 4 3 4 4 4 5 5 5 5 5 6 5 5 6 7 7 7 7 7 6 6 6 5 3 4 3 3 4 4 4
8 6 6 5 4 4 4 4 4 3 2 2 3 4 4 3 3 4 5 5 5 5 5 5 6 6 5 6 7 7 7 7 6 6 6 6 6 5 6 4 6 5 3 2
7 5 6 6 5 4 4 4 3 3 3 2 2 3 4 4 4 4 5 5 5 5 5 5 5 5 5 6 6 7 7 7 6 6 6 6 6 6 5 4 6 5 4 4
6 4 5 4 4 4 3 3 3 2 2 2 2 3 3 4 4 4 4 5 5 5 5 5 5 4 5 6 7 7 6 6 6 5 5 5 5 5 5 5 4 3 3 4
7 7 6 5 4 3 2 2 2 2 2 2 2 3 4 4 4 4 4 4 5 5 5 5 5 4 5 6 7 7 6 5 5 5 5 5 5 5 5 5 4 3 3 4
6 5 5 4 4 3 2 2 3 3 3 3 3 3 4 4 4 4 4 5 5 5 4 4 4 4 5 6 7 6 5 6 6 5 5 5 5 5 5 5 4 3 3 3
6 5 5 5 5 4 4 3 3 3 3 4 4 4 4 5 5 5 4 4 4 4 4 4 3 4 5 5 6 5 5 6 7 6 5 5 5 5 5 4 4 3 3 3
7 6 6 6 5 4 3 3 3 3 3 4 4 5 5 6 6 5 5 5 5 4 3 3 4 4 5 5 5 5 5 5 5 5 5 5 5 5 5 4 4 4 3 4
5 5 5 5 4 4 3 3 3 2 3 4 5 5 5 5 5 5 6 5 5 4 2 3 4 5 5 5 4 4 5 6 5 5 5 6 5 5 4 4 4 4 4 3
3 3 3 3 3 3 3 3 2 2 3 4 5 5 5 4 5 5 6 5 3 2 3 4 5 4 5 5 5 4 5 5 5 5 5 5 5 4 4 4 4 4 3 3
3 3 3 3 3 3 3 3 3 3 3 4 4 5 5 4 5 5 5 4 3 2 3 4 4 4 4 5 5 4 5 5 5 5 5 5 4 4 4 4 4 3 3 3
3 3 3 3 3 3 2 3 3 4 3 3 4 4 4 4 4 4 4 3 3 4 3 3 4 5 5 6 5 4 5 5 5 4 4 4 4 4 4 4 3 3 3 3
2 3 3 3 3 3 3 3 4 4 4 4 4 4 4 4 3 3 3 3 3 4 3 3 6 8 7 5 4 5 5 5 5 4 4 4 4 4 4 4 3 3 2 2
2 2 3 3 3 3 3 3 3 3 3 3 2 3 4 3 3 2 2 4 4 5 4 6 9 8 6 4 4 4 5 5 4 4 4 4 3 3 3 3 3 3 2 2
2 2 3 4 4 3 3 3 3 3 3 3 2 2 2 2 3 3 3 4 5 5 5 7 9 8 5 4 4 4 4 4 4 4 4 4 3 3 3 3 3 2 2 2
2 2 3 3 2 2 3 3 3 3 3 3 2 2 2 2 3 3 3 4 5 5 5 5 5 5 4 4 4 4 4 5 5 4 4 3 3 3 3 3 3 2 2 1
2 2 2 2 2 2 2 3 3 3 3 3 3 3 3 3 3 4 4 4 4 4 4 4 4 4 4 4 4 4 4 4 4 4 3 3 3 3 3 3 2 2 1 1
Wind_Direction
257 265 250 248 239 229 234 244 251 259 267 278 276 245 215 199 189 181 180 181 182 185 186 187 190 193 191 189 188 187 187 190 191 190 188 187 184 189 191 191 198 195 194 193
242 239 245 252 250 241 241 248 250 257 262 267 263 229 207 200 194 192 190 190 190 191 190 192 194 194 192 192 190 189 191 193 189 189 185 186 186 187 190 192 196 189 195 195
247 242 257 250 239 235 236 237 243 249 256 248 238 232 222 207 201 196 194 193 194 197 196 198 196 191 192 192 188 190 192 189 187 188 187 189 188 185 186 187 187 190 195 197
254 246 246 253 218 245 244 242 242 254 260 245 244 243 221 208 207 207 202 201 200 200 200 201 194 189 189 188 189 190 190 190 190 190 189 189 188 189 192 191 187 193 198 201
240 248 264 254 234 233 240 249 242 245 246 237 233 211 203 201 212 215 211 208 204 202 199 196 190 186 183 185 188 190 192 192 191 190 189 189 190 192 192 191 191 194 197 202
233 244 250 249 162 232 244 246 228 234 232 219 207 220 198 180 198 207 207 203 195 186 187 185 182 179 182 183 187 191 191 193 190 189 189 192 194 193 187 186 189 188 188 197
234 242 253 255 176 198 226 262 333 245 232 219 222 246 186 169 182 190 190 187 174 170 176 178 174 175 181 181 187 187 182 182 181 183 187 189 188 184 180 178 177 181 178 181
226 236 241 163 182 219 277 326 303 269 244 232 233 231 177 161 161 158 158 161 162 160 162 165 170 174 178 182 181 170 166 169 173 175 175 174 172 173 175 171 169 175 177 174
222 235 299 188 233 276 302 292 290 274 260 232 217 206 194 172 155 148 151 152 157 155 150 154 166 174 176 175 167 162 159 161 165 165 164 165 166 167 168 168 173 179 182 181
235 243 257 257 264 278 287 291 293 278 249 225 210 194 186 172 158 149 147 148 151 149 146 147 156 165 169 160 160 159 158 158 158 157 154 151 152 163 167 172 178 182 182 181
238 252 265 258 270 289 300 295 288 268 237 214 200 191 179 171 162 155 149 149 152 153 150 150 154 158 159 156 160 165 161 157 157 153 148 144 141 137 159 161 174 175 179 179
239 243 251 261 279 293 282 278 276 261 234 204 188 183 173 166 160 152 150 150 151 149 148 150 150 150 153 159 164 165 162 158 155 154 154 155 150 132 76 81 90 93 84 113
258 268 268 276 274 281 271 270 271 265 244 210 194 179 167 156 153 150 152 154 154 155 154 149 145 145 151 160 163 163 160 157 155 158 161 164 164 161 150 115 94 93 97 101
252 255 254 258 266 285 277 269 261 260 256 225 190 171 155 146 145 148 152 154 150 147 148 147 144 143 150 156 157 157 156 150 151 155 157 159 164 167 165 160 151 131 116 119
247 251 253 267 273 272 261 234 219 224 226 224 197 169 159 155 152 148 144 143 141 141 146 146 145 144 148 154 157 156 153 153 152 149 150 150 153 155 155 156 153 148 135 126
241 243 238 240 250 248 233 221 216 218 210 207 196 180 166 156 147 139 138 143 149 149 151 150 150 147 149 152 152 151 147 140 146 148 146 147 149 150 150 152 151 148 146 131
220 228 229 229 234 234 232 234 235 230 213 199 184 165 150 143 140 139 138 140 142 138 141 147 144 139 146 152 152 150 147 146 148 149 149 151 152 153 151 150 152 150 141 118
235 238 233 227 229 230 232 233 228 214 205 191 166 161 162 161 160 156 148 143 135 123 125 135 133 136 141 150 152 148 148 148 153 154 152 152 153 152 151 151 154 151 136 124
234 235 234 229 225 217 210 209 207 195 177 171 167 167 169 168 162 157 150 147 145 142 140 129 128 141 142 144 146 147 148 149 150 150 148 145 151 152 152 153 151 151 143 135
226 227 224 214 206 200 193 188 174 161 158 162 159 156 160 165 163 160 155 153 156 156 144 136 143 143 140 141 145 148 146 147 149 148 148 149 151 150 149 148 147 145 143 139
209 202 194 193 188 184 179 173 164 157 153 158 161 159 159 160 162 161 157 155 148 134 138 144 146 140 138 136 146 144 142 143 146 147 148 149 148 147 147 146 146 146 143 139
200 191 189 183 172 164 161 161 155 149 146 151 152 149 146 149 155 154 150 145 137 132 138 144 140 125 129 132 139 136 136 137 139 141 144 147 148 148 147 146 146 145 145 144
186 185 186 184 173 162 150 145 143 146 152 158 157 153 151 149 156 158 153 136 133 136 135 132 124 124 132 136 133 134 134 136 137 138 140 143 146 147 146 147 145 143 147 146
178 177 177 176 169 164 156 146 145 146 145 146 150 151 149 146 141 136 123 120 124 133 129 124 127 132 139 137 135 135 135 134 135 136 135 136 137 140 142 141 141 143 145 142
180 169 171 176 177 175 167 158 149 144 140 138 139 144 147 146 148 143 133 130 128 128 124 126 131 135 137 133 134 132 131 130 131 133 133 136 138 140 140 139 140 140 138 138
183 177 181 183 182 181 171 166 164 164 157 149 148 151 142 136 136 138 138 142 139 133 131 132 137 139 134 130 129 128 126 126 126 127 129 132 136 137 138 140 144 146 145 144
178 173 172 170 171 178 178 174 171 174 171 163 160 164 163 156 151 149 148 149 146 142 137 136 138 138 134 130 128 128 125 121 121 123 126 130 135 139 144 149 149 146 147 153
Height
1526 1526 1528 1528 1529 1530 1530 1526 1528 1525 1524 1520 1520 1523 1525 1527 1529 1531 1532 1534 1536 1538 1540 1542 1544 1547 1549 1551 1554 1556 1558 1560 1562 1564 1565 1567 1568 1569 1571 1572 1573 1574 1575 1575
1527 1526 1526 1527 1525 1525 1526 1524 1523 1522 1521 1517 1520 1522 1523 1525 1527 1529 1530 1532 1534 1536 1538 1540 1542 1544 1546 1549 1551 1553 1555 1557 1559 1561 1563 1564 1566 1567 1569 1570 1571 1572 1573 1573
1527 1524 1526 1526 1520 1521 1521 1519 1520 1520 1517 1517 1518 1520 1522 1523 1525 1527 1528 1530 1532 1534 1536 1538 1540 1542 1544 1546 1548 1550 1553 1555 1557 1559 1560 1562 1563 1565 1566 1568 1569 1570 1571 1571
1527 1528 1534 1518 1515 1516 1517 1516 1515 1515 1515 1516 1518 1519 1521 1522 1523 1525 1526 1528 1530 1532 1533 1535 1537 1539 1541 1544 1546 1548 1550 1552 1554 1556 1558 1560 1561 1563 1564 1566 1567 1568 1569 1570
1527 1528 1522 1516 1515 1516 1517 1514 1512 1513 1514 1516 1517 1518 1519 1520 1521 1523 1524 1526 1527 1529 1531 1533 1535 1537 1539 1541 1543 1545 1547 1549 1551 1553 1555 1557 1559 1560 1562 1563 1564 1565 1566 1567
1527 1530 1528 1516 1513 1515 1517 1514 1510 1511 1512 1514 1515 1513 1514 1517 1519 1520 1522 1523 1525 1526 1528 1530 1532 1534 1536 1538 1540 1542 1544 1546 1549 1551 1553 1555 1556 1558 1560 1561 1562 1563 1564 1564
1523 1524 1515 1511 1513 1515 1519 1512 1510 1510 1511 1512 1512 1512 1514 1516 1517 1519 1520 1521 1522 1524 1526 1528 1530 1532 1534 1536 1538 1540 1542 1544 1546 1548 1550 1552 1554 1555 1557 1558 1559 1560 1561 1562
1519 1522 1518 1511 1512 1513 1510 1510 1509 1509 1510 1511 1511 1512 1513 1514 1516 1517 1518 1519 1521 1522 1524 1526 1528 1530 1532 1534 1535 1538 1540 1542 1544 1546 1548 1549 1551 1553 1554 1555 1557 1558 1559 1559
1510 1511 1508 1510 1510 1510 1510 1510 1509 1509 1509 1509 1509 1511 1512 1513 1514 1515 1516 1517 1519 1521 1522 1524 1526 1528 1530 1532 1534 1536 1538 1539 1541 1543 1545 1547 1549 1550 1551 1553 1554 1555 1556 1557
1508 1506 1508 1509 1509 1509 1509 1508 1507 1507 1507 1508 1508 1509 1511 1511 1512 1514 1515 1516 1518 1519 1521 1523 1524 1526 1528 1530 1532 1534 1535 1537 1539 1541 1543 1544 1546 1547 1549 1550 1551 1552 1553 1554
1505 1506 1507 1507 1507 1507 1506 1506 1506 1505 1506 1506 1507 1508 1509 1510 1511 1512 1514 1515 1516 1518 1519 1521 1523 1524 1526 1528 1530 1532 1534 1535 1537 1539 1540 1541 1543 1544 1546 1547 1548 1550 1551 1551
1502 1504 1505 1504 1505 1505 1505 1504 1504 1504 1504 1505 1506 1506 1507 1509 1510 1511 1512 1514 1515 1516 1518 1520 1521 1523 1524 1526 1528 1530 1532 1534 1535 1536 1538 1539 1541 1542 1543 1545 1546 1547 1548 1549
1503 1503 1503 1503 1503 1503 1503 1502 1503 1503 1503 1503 1504 1505 1506 1507 1508 1510 1511 1513 1514 1515 1517 1518 1520 1521 1523 1524 1526 1528 1529 1531 1532 1534 1535 1537 1538 1539 1541 1543 1544 1545 1546 1547
1501 1501 1501 1501 1501 1501 1501 1501 1501 1501 1502 1502 1503 1503 1504 1505 1507 1508 1510 1511 1512 1514 1515 1517 1518 1519 1521 1523 1524 1526 1527 1529 1530 1531 1533 1534 1536 1537 1539 1540 1541 1542 1543 1544
1497 1498 1498 1498 1498 1498 1499 1499 1499 1499 1500 1501 1501 1502 1503 1504 1505 1507 1508 1510 1511 1512 1514 1515 1517 1518 1519 1521 1522 1524 1525 1526 1528 1529 1531 1532 1534 1535 1536 1538 1539 1540 1541 1542
1494 1494 1494 1495 1495 1496 1496 1496 1497 1497 1498 1499 1499 1500 1501 1502 1504 1505 1507 1508 1509 1510 1512 1513 1515 1516 1518 1519 1520 1522 1523 1524 1526 1527 1528 1530 1531 1533 1534 1535 1536 1537 1538 1539
1490 1491 1491 1492 1492 1493 1493 1494 1494 1495 1496 1496 1497 1498 1499 1501 1502 1503 1505 1507 1508 1509 1510 1512 1513 1514 1515 1517 1519 1520 1521 1523 1524 1525 1526 1528 1529 1530 1532 1533 1534 1535 1536 1536
1487 1487 1488 1488 1489 1490 1491 1491 1492 1492 1493 1494 1495 1496 1497 1499 1500 1502 1503 1505 1506 1507 1509 1510 1511 1513 1514 1515 1517 1518 1519 1521 1522 1523 1524 1526 1527 1528 1529 1531 1532 1533 1533 1534
1483 1484 1485 1486 1487 1487 1488 1488 1489 1490 1491 1492 1493 1494 1496 1497 1499 1500 1502 1503 1504 1505 1507 1508 1509 1511 1512 1513 1515 1516 1517 1519 1520 1521 1522 1524 1525 1526 1527 1528 1529 1530 1531 1531
1480 1481 1482 1482 1484 1485 1485 1486 1486 1487 1489 1490 1491 1492 1494 1495 1497 1498 1500 1501 1503 1504 1505 1506 1508 1509 1510 1511 1512 1514 1515 1516 1518 1519 1520 1521 1522 1523 1524 1525 1526 1527 1528 1528
1477 1478 1479 1480 1481 1482 1482 1483 1484 1485 1486 1488 1489 1490 1492 1493 1495 1496 1497 1499 1501 1502 1503 1504 1505 1506 1508 1509 1510 1511 1513 1514 1516 1517 1518 1519 1520 1521 1522 1523 1523 1524 1525 1525
1475 1476 1476 1477 1478 1479 1480 1481 1482 1483 1484 1486 1487 1489 1490 1491 1493 1494 1495 1497 1498 1499 1501 1502 1503 1504 1505 1507 1508 1509 1510 1511 1513 1514 1515 1516 1517 1518 1519 1520 1521 1521 1522 1522
1473 1473 1474 1475 1476 1477 1478 1479 1480 1481 1483 1484 1485 1486 1487 1489 1490 1492 1493 1495 1496 1498 1499 1500 1501 1502 1503 1505 1506 1507 1508 1509 1510 1511 1512 1513 1514 1515 1516 1517 1518 1518 1519 1519
1470 1471 1472 1473 1474 1475 1476 1477 1479 1480 1481 1482 1483 1484 1485 1487 1488 1490 1491 1493 1494 1496 1497 1498 1499 1500 1502 1503 1504 1505 1506 1507 1508 1509 1510 1511 1512 1512 1513 1514 1514 1515 1515 1516
1469 1469 1471 1472 1473 1473 1474 1475 1476 1477 1478 1480 1481 1482 1484 1485 1486 1488 1489 1491 1492 1493 1494 1496 1497 1499 1500 1501 1502 1502 1503 1504 1505 1506 1507 1508 1509 1510 1510 1511 1511 1512 1512 1513
1467 1468 1469 1470 1471 1471 1472 1473 1474 1475 1476 1477 1478 1480 1482 1483 1484 1486 1487 1489 1490 1491 1492 1494 1496 1497 1498 1499 1500 1500 1501 1502 1503 1504 1505 1505 1506 1507 1507 1508 1508 1509 1509 1509
1465 1465 1466 1467 1468 1469 1470 1470 1471 1472 1473 1474 1476 1478 1479 1481 1482 1484 1485 1487 1488 1489 1490 1492 1493 1495 1496 1497 1498 1498 1499 1500 1501 1501 1502 1503 1504 1504 1505 1505 1506 1506 1506 1506